| time (UTC) | temp F | wind direction | speed MPH | gust MPH | rain 1hr in | rain 24hr in | rain mn in | humidity % | barometer mb |
| 20260509111316 | 49 | 270 | 1.0 | 2.0 | 0.00 | 0.00 | 0.00 | 68 | 1023.4 |
| 20260509110358 | 49 | 270 | 1.0 | 1.0 | 0.00 | 0.00 | 0.00 | 67 | 1023.4 |
| 20260509105316 | 49 | 270 | 2.0 | 2.0 | 0.00 | 0.00 | 0.00 | 67 | 1023.5 |
| 20260509104316 | 50 | 270 | 1.0 | 2.0 | 0.00 | 0.00 | 0.00 | 66 | 1023.4 |
| 20260509103317 | 50 | 270 | 1.0 | 1.0 | 0.00 | 0.00 | 0.00 | 66 | 1023.4 |
| 20260509102317 | 50 | 270 | 1.0 | 2.0 | 0.00 | 0.00 | 0.00 | 66 | 1023.4 |
| 20260509101317 | 50 | 270 | 2.0 | 2.0 | 0.00 | 0.00 | 0.00 | 66 | 1023.3 |
| 20260509100316 | 50 | 270 | 2.0 | 2.0 | 0.00 | 0.00 | 0.00 | 66 | 1023.3 |
| 20260509095316 | 50 | 270 | 1.0 | 2.0 | 0.00 | 0.00 | 0.00 | 66 | 1023.4 |
| 20260509094316 | 51 | 293 | 1.0 | 2.0 | 0.00 | 0.00 | 0.00 | 65 | 1023.4 |
| 20260509093316 | 51 | 293 | 1.0 | 2.0 | 0.00 | 0.00 | 0.00 | 65 | 1023.5 |
| 20260509092316 | 51 | 0.0 | 1.0 | 0.00 | 0.00 | 0.00 | 65 | 1023.6 | |
| 20260509091337 | 51 | 0.0 | 0.0 | 0.00 | 0.00 | 0.00 | 64 | 1023.7 | |
| 20260509090316 | 52 | 0.0 | 0.0 | 0.00 | 0.00 | 0.00 | 64 | 1023.8 | |
| 20260509085316 | 52 | 0.0 | 0.0 | 0.00 | 0.00 | 0.00 | 63 | 1023.8 | |
| 20260509084316 | 53 | 293 | 1.0 | 1.0 | 0.00 | 0.00 | 0.00 | 63 | 1024.0 |
| 20260509083315 | 53 | 293 | 2.0 | 2.0 | 0.00 | 0.00 | 0.00 | 63 | 1024.1 |
| 20260509082316 | 53 | 293 | 2.0 | 3.0 | 0.00 | 0.00 | 0.00 | 62 | 1024.2 |
| 20260509081337 | 53 | 293 | 3.0 | 6.0 | 0.00 | 0.00 | 0.00 | 62 | 1024.1 |
| 20260509080316 | 54 | 293 | 1.0 | 2.0 | 0.00 | 0.00 | 0.00 | 61 | 1024.2 |
| 20260509075316 | 54 | 293 | 2.0 | 3.0 | 0.00 | 0.00 | 0.00 | 61 | 1024.2 |
| 20260509074316 | 54 | 293 | 2.0 | 5.0 | 0.00 | 0.00 | 0.00 | 60 | 1024.3 |
| 20260509073316 | 55 | 293 | 3.0 | 4.0 | 0.00 | 0.00 | 0.00 | 60 | 1024.3 |
| 20260509072317 | 55 | 293 | 3.0 | 4.0 | 0.00 | 0.00 | 0.00 | 59 | 1024.3 |
| 20260509071316 | 55 | 293 | 3.0 | 4.0 | 0.00 | 0.00 | 0.00 | 59 | 1024.4 |
| 20260509070316 | 56 | 293 | 2.0 | 3.0 | 0.00 | 0.00 | 0.00 | 58 | 1024.3 |
| 20260509065317 | 56 | 293 | 3.0 | 4.0 | 0.00 | 0.00 | 0.00 | 57 | 1024.3 |
| 20260509064317 | 56 | 293 | 3.0 | 4.0 | 0.00 | 0.00 | 0.00 | 57 | 1024.4 |
| 20260509063317 | 56 | 293 | 2.0 | 4.0 | 0.00 | 0.00 | 0.00 | 56 | 1024.3 |
| 20260509062316 | 57 | 270 | 3.0 | 4.0 | 0.00 | 0.00 | 0.00 | 55 | 1024.3 |
| 20260509061317 | 57 | 293 | 3.0 | 4.0 | 0.00 | 0.00 | 0.00 | 54 | 1024.1 |
| 20260509060317 | 57 | 270 | 2.0 | 4.0 | 0.00 | 0.00 | 0.00 | 54 | 1024.0 |
| 20260509055317 | 58 | 270 | 3.0 | 4.0 | 0.00 | 0.00 | 0.00 | 53 | 1024.0 |
| 20260509054337 | 58 | 270 | 3.0 | 4.0 | 0.00 | 0.00 | 0.00 | 52 | 1023.8 |
| 20260509053337 | 58 | 315 | 3.0 | 5.0 | 0.00 | 0.00 | 0.00 | 52 | 1023.8 |
| 20260509052317 | 59 | 315 | 6.0 | 10.0 | 0.00 | 0.00 | 0.00 | 52 | 1023.9 |
| 20260509051316 | 59 | 293 | 3.0 | 5.0 | 0.00 | 0.00 | 0.00 | 52 | 1023.9 |
| 20260509050337 | 59 | 338 | 4.0 | 6.0 | 0.00 | 0.00 | 0.00 | 52 | 1023.9 |
| 20260509045316 | 59 | 315 | 3.0 | 7.0 | 0.00 | 0.00 | 0.00 | 52 | 1023.8 |
| 20260509044316 | 59 | 338 | 4.0 | 5.0 | 0.00 | 0.00 | 0.00 | 52 | 1023.7 |
| 20260509043317 | 59 | 0 | 8.0 | 10.0 | 0.00 | 0.00 | 0.00 | 51 | 1023.8 |
| 20260509042317 | 60 | 315 | 3.0 | 5.0 | 0.00 | 0.00 | 0.00 | 51 | 1023.6 |
| 20260509041337 | 60 | 338 | 4.0 | 8.0 | 0.00 | 0.00 | 0.00 | 50 | 1023.5 |
| 20260509040316 | 60 | 315 | 5.0 | 9.0 | 0.00 | 0.00 | 0.00 | 50 | 1023.5 |
| 20260509035337 | 61 | 315 | 8.0 | 11.0 | 0.00 | 0.00 | 0.00 | 49 | 1023.4 |
| 20260509034317 | 61 | 315 | 5.0 | 8.0 | 0.00 | 0.00 | 0.00 | 47 | 1023.2 |
| 20260509033316 | 62 | 315 | 3.0 | 5.0 | 0.00 | 0.00 | 0.00 | 46 | 1023.1 |
| 20260509032316 | 62 | 0 | 5.0 | 8.0 | 0.00 | 0.00 | 0.00 | 46 | 1023.1 |
| 20260509031316 | 62 | 338 | 3.0 | 5.0 | 0.00 | 0.00 | 0.00 | 45 | 1023.0 |
| 20260509030316 | 62 | 315 | 3.0 | 4.0 | 0.00 | 0.00 | 0.00 | 44 | 1023.0 |
| 20260509025336 | 63 | 338 | 4.0 | 6.0 | 0.00 | 0.00 | 0.00 | 44 | 1023.0 |
| 20260509024316 | 63 | 338 | 4.0 | 6.0 | 0.00 | 0.00 | 0.00 | 44 | 1022.9 |
| 20260509023337 | 64 | 338 | 6.0 | 10.0 | 0.00 | 0.00 | 0.00 | 42 | 1022.9 |
| 20260509022316 | 64 | 23 | 3.0 | 8.0 | 0.00 | 0.00 | 0.00 | 42 | 1022.9 |
| 20260509021316 | 64 | 293 | 5.0 | 8.0 | 0.00 | 0.00 | 0.00 | 41 | 1022.8 |
| 20260509020317 | 65 | 0 | 3.0 | 4.0 | 0.00 | 0.00 | 0.00 | 41 | 1022.9 |
| 20260509015316 | 65 | 293 | 4.0 | 5.0 | 0.00 | 0.00 | 0.00 | 39 | 1022.9 |
| 20260509014337 | 66 | 315 | 2.0 | 3.0 | 0.00 | 0.00 | 0.00 | 38 | 1022.8 |
| 20260509013357 | 66 | 0 | 2.0 | 4.0 | 0.00 | 0.00 | 0.00 | 38 | 1022.9 |
| 20260509012316 | 68 | 0 | 3.0 | 5.0 | 0.00 | 0.00 | 0.00 | 36 | 1023.0 |
| 20260509011316 | 68 | 293 | 3.0 | 5.0 | 0.00 | 0.00 | 0.00 | 35 | 1023.0 |
| 20260509010316 | 68 | 293 | 2.0 | 4.0 | 0.00 | 0.00 | 0.00 | 34 | 1023.1 |
| 20260509005316 | 68 | 338 | 5.0 | 6.0 | 0.00 | 0.00 | 0.00 | 36 | 1023.0 |
| 20260509004316 | 68 | 0 | 5.0 | 10.0 | 0.00 | 0.00 | 0.00 | 36 | 1023.0 |
| 20260509003316 | 67 | 270 | 5.0 | 7.0 | 0.00 | 0.00 | 0.00 | 34 | 1023.1 |
| 20260509002316 | 69 | 338 | 5.0 | 9.0 | 0.00 | 0.00 | 0.00 | 33 | 1023.2 |
| 20260509001316 | 68 | 315 | 3.0 | 5.0 | 0.00 | 0.00 | 0.00 | 33 | 1023.2 |
| 20260509000318 | 70 | 338 | 4.0 | 6.0 | 0.00 | 0.00 | 0.00 | 32 | 1023.3 |
| 20260508235357 | 70 | 0 | 5.0 | 8.0 | 0.00 | 0.00 | 0.00 | 32 | 1023.2 |
| 20260508234316 | 70 | 248 | 5.0 | 8.0 | 0.00 | 0.00 | 0.00 | 32 | 1023.2 |
| 20260508233316 | 69 | 315 | 5.0 | 8.0 | 0.00 | 0.00 | 0.00 | 33 | 1023.3 |
| 20260508232315 | 69 | 203 | 2.0 | 3.0 | 0.00 | 0.00 | 0.00 | 32 | 1023.3 |
| 20260508231316 | 68 | 293 | 5.0 | 7.0 | 0.00 | 0.00 | 0.00 | 33 | 1023.3 |
| 20260508230316 | 69 | 293 | 3.0 | 6.0 | 0.00 | 0.00 | 0.00 | 32 | 1023.4 |
| 20260508225336 | 69 | 293 | 6.0 | 8.0 | 0.00 | 0.00 | 0.00 | 33 | 1023.5 |
| 20260508224316 | 68 | 338 | 2.0 | 3.0 | 0.00 | 0.00 | 0.00 | 34 | 1023.5 |
| 20260508223316 | 67 | 203 | 4.0 | 6.0 | 0.00 | 0.00 | 0.00 | 33 | 1023.5 |
| 20260508222316 | 68 | 315 | 2.0 | 2.0 | 0.00 | 0.00 | 0.00 | 31 | 1023.5 |
| 20260508221316 | 67 | 0 | 3.0 | 4.0 | 0.00 | 0.00 | 0.00 | 35 | 1023.5 |
| 20260508220316 | 67 | 248 | 2.0 | 3.0 | 0.00 | 0.00 | 0.00 | 34 | 1023.6 |
| 20260508215315 | 67 | 270 | 3.0 | 5.0 | 0.00 | 0.00 | 0.00 | 33 | 1023.6 |
| 20260508214316 | 67 | 293 | 6.0 | 9.0 | 0.00 | 0.00 | 0.00 | 35 | 1023.7 |
| 20260508213316 | 66 | 0.0 | 1.0 | 0.00 | 0.00 | 0.00 | 35 | 1023.7 | |
| 20260508212335 | 66 | 315 | 4.0 | 6.0 | 0.00 | 0.00 | 0.00 | 35 | 1023.7 |
| 20260508211317 | 65 | 225 | 2.0 | 3.0 | 0.00 | 0.00 | 0.00 | 34 | 1023.7 |
| 20260508210317 | 65 | 248 | 9.0 | 11.0 | 0.00 | 0.00 | 0.00 | 35 | 1023.6 |
| 20260508205317 | 65 | 293 | 1.0 | 3.0 | 0.00 | 0.00 | 0.00 | 36 | 1023.7 |
| 20260508204316 | 64 | 270 | 3.0 | 7.0 | 0.00 | 0.00 | 0.00 | 38 | 1023.6 |
| 20260508203317 | 64 | 135 | 4.0 | 4.0 | 0.00 | 0.00 | 0.00 | 36 | 1023.6 |
| 20260508202317 | 64 | 45 | 1.0 | 3.0 | 0.00 | 0.00 | 0.00 | 36 | 1023.6 |
| 20260508201317 | 64 | 293 | 2.0 | 3.0 | 0.00 | 0.00 | 0.00 | 38 | 1023.7 |
| 20260508200317 | 62 | 180 | 2.0 | 4.0 | 0.00 | 0.00 | 0.00 | 40 | 1023.8 |
| 20260508195337 | 62 | 338 | 1.0 | 2.0 | 0.00 | 0.00 | 0.00 | 41 | 1023.7 |
| 20260508194317 | 61 | 338 | 3.0 | 6.0 | 0.00 | 0.00 | 0.00 | 43 | 1023.7 |
| 20260508193317 | 60 | 338 | 3.0 | 4.0 | 0.00 | 0.00 | 0.00 | 44 | 1023.5 |
| 20260508192317 | 60 | 90 | 2.0 | 2.0 | 0.00 | 0.00 | 0.00 | 42 | 1023.7 |
| 20260508191317 | 61 | 315 | 3.0 | 5.0 | 0.00 | 0.00 | 0.00 | 42 | 1023.7 |
| 20260508190338 | 61 | 45 | 1.0 | 3.0 | 0.00 | 0.00 | 0.00 | 43 | 1023.7 |
| 20260508185317 | 61 | 293 | 3.0 | 4.0 | 0.00 | 0.00 | 0.00 | 43 | 1023.7 |
| 20260508184317 | 59 | 293 | 3.0 | 7.0 | 0.00 | 0.00 | 0.00 | 46 | 1023.7 |
| 20260508183317 | 58 | 225 | 4.0 | 8.0 | 0.00 | 0.00 | 0.00 | 46 | 1023.7 |
| 20260508182317 | 58 | 225 | 2.0 | 4.0 | 0.00 | 0.00 | 0.00 | 47 | 1023.7 |
| 20260508181317 | 58 | 225 | 2.0 | 5.0 | 0.00 | 0.00 | 0.00 | 47 | 1023.5 |
| 20260508180317 | 58 | 338 | 2.0 | 3.0 | 0.00 | 0.00 | 0.00 | 50 | 1023.5 |
| 20260508175317 | 58 | 248 | 2.0 | 4.0 | 0.00 | 0.00 | 0.00 | 48 | 1023.6 |
| 20260508174317 | 56 | 225 | 1.0 | 2.0 | 0.00 | 0.00 | 0.00 | 51 | 1023.3 |
| 20260508173317 | 55 | 293 | 3.0 | 5.0 | 0.00 | 0.00 | 0.00 | 52 | 1023.3 |
| 20260508172459 | 55 | 135 | 2.0 | 4.0 | 0.00 | 0.00 | 0.00 | 53 | 1023.2 |
| 20260508171317 | 54 | 225 | 3.0 | 5.0 | 0.00 | 0.00 | 0.00 | 54 | 1023.0 |
| 20260508170317 | 53 | 225 | 2.0 | 3.0 | 0.00 | 0.00 | 0.00 | 55 | 1022.6 |
| 20260508165316 | 53 | 180 | 3.0 | 4.0 | 0.00 | 0.00 | 0.00 | 56 | 1022.5 |
| 20260508164317 | 53 | 180 | 3.0 | 5.0 | 0.00 | 0.00 | 0.00 | 56 | 1022.6 |
| 20260508163317 | 53 | 158 | 3.0 | 5.0 | 0.00 | 0.00 | 0.00 | 56 | 1022.7 |
| 20260508162316 | 52 | 90 | 3.0 | 4.0 | 0.00 | 0.00 | 0.00 | 59 | 1022.3 |
| 20260508161317 | 52 | 135 | 5.0 | 8.0 | 0.00 | 0.00 | 0.00 | 58 | 1022.4 |
| 20260508160317 | 51 | 135 | 6.0 | 7.0 | 0.00 | 0.00 | 0.00 | 59 | 1022.3 |
| 20260508155317 | 51 | 158 | 4.0 | 7.0 | 0.00 | 0.00 | 0.00 | 60 | 1022.2 |
| 20260508154317 | 51 | 90 | 2.0 | 2.0 | 0.00 | 0.00 | 0.00 | 60 | 1022.1 |
| 20260508153317 | 51 | 23 | 1.0 | 2.0 | 0.00 | 0.00 | 0.00 | 60 | 1022.3 |
| 20260508152317 | 50 | 23 | 1.0 | 2.0 | 0.00 | 0.00 | 0.00 | 60 | 1022.4 |
| 20260508151336 | 50 | 315 | 2.0 | 5.0 | 0.00 | 0.00 | 0.00 | 61 | 1022.6 |
| 20260508150336 | 50 | 293 | 1.0 | 2.0 | 0.00 | 0.00 | 0.00 | 63 | 1022.6 |
| 20260508145317 | 49 | 293 | 2.0 | 3.0 | 0.00 | 0.00 | 0.00 | 63 | 1022.8 |
| 20260508144316 | 49 | 293 | 2.0 | 4.0 | 0.00 | 0.00 | 0.00 | 64 | 1022.8 |
| 20260508143316 | 48 | 338 | 3.0 | 5.0 | 0.00 | 0.00 | 0.00 | 64 | 1022.6 |
| 20260508142316 | 48 | 315 | 2.0 | 2.0 | 0.00 | 0.00 | 0.00 | 65 | 1022.4 |
| 20260508141316 | 48 | 270 | 3.0 | 4.0 | 0.00 | 0.00 | 0.00 | 65 | 1022.3 |
| 20260508140317 | 48 | 315 | 2.0 | 3.0 | 0.00 | 0.00 | 0.00 | 65 | 1022.1 |
| 20260508135316 | 48 | 293 | 3.0 | 7.0 | 0.00 | 0.00 | 0.00 | 64 | 1022.0 |
| 20260508134316 | 48 | 293 | 2.0 | 3.0 | 0.00 | 0.00 | 0.00 | 65 | 1021.7 |
| 20260508133316 | 48 | 270 | 2.0 | 3.0 | 0.00 | 0.00 | 0.00 | 65 | 1021.4 |
| 20260508132316 | 48 | 293 | 1.0 | 2.0 | 0.00 | 0.00 | 0.00 | 64 | 1021.2 |
| 20260508131316 | 49 | 270 | 1.0 | 3.0 | 0.00 | 0.00 | 0.00 | 64 | 1021.0 |
| 20260508131116 | 49 | 270 | 1.0 | 2.0 | 0.00 | 0.00 | 0.00 | 64 | 1021.0 |
| 20260508130117 | 49 | 0.0 | 0.0 | 0.00 | 0.00 | 0.00 | 64 | 1020.9 | |
| 20260508125137 | 49 | 270 | 1.0 | 2.0 | 0.00 | 0.00 | 0.00 | 63 | 1020.9 |
| 20260508124117 | 49 | 0.0 | 1.0 | 0.00 | 0.00 | 0.00 | 63 | 1020.7 | |
| 20260508123117 | 50 | 270 | 1.0 | 2.0 | 0.00 | 0.00 | 0.00 | 63 | 1020.7 |
| 20260508122116 | 50 | 0.0 | 1.0 | 0.00 | 0.00 | 0.00 | 63 | 1020.6 | |
| 20260508121116 | 50 | 0.0 | 0.0 | 0.00 | 0.00 | 0.00 | 63 | 1020.6 | |
| 20260508120117 | 50 | 0.0 | 1.0 | 0.00 | 0.00 | 0.00 | 63 | 1020.5 | |
| 20260508115157 | 50 | 0.0 | 1.0 | 0.00 | 0.00 | 0.00 | 63 | 1020.3 | |
| 20260508114116 | 50 | 270 | 1.0 | 1.0 | 0.00 | 0.00 | 0.00 | 63 | 1020.2 |
| 20260508113116 | 50 | 270 | 1.0 | 1.0 | 0.00 | 0.00 | 0.00 | 62 | 1020.0 |